Terminal Aerodrome Forecast
Issued by NWS Greer, SC

Home | Current Version | Previous Version | Text Only | Print | Product List | Glossary On
Versions: 1 2 3 4 5 6 7 8 9 10 11 12 13 14 15 16 17 18 19 20 21 22 23 24 25 26 27 28 29 30 31 32 33 34 35 36 37 38 39 40 41 42 43 44
000
FTUS42 KGSP 311307 AAA
TAFCLT
TAF AMD
KCLT 311307Z 3113/0112 06005KT P6SM SCT015
     FM311500 03004KT P6SM SCT040
     FM010000 11003KT P6SM SCT060 BKN200
     FM010800 02002KT 5SM BR FEW020 SCT200=

USA.gov is the U.S. government's official web portal to all federal, state and local government web resources and services.